Home   Weather   Auxerre   Past weeks

Flag for France Past Weather in Auxerre, Burgundy, France — Yesterday and Last 2 Weeks

Now
54 °F

Fog.


Feels Like: 54 °F
Forecast: 43 / 71 °F
Wind: No wind

Location: Troyes Airport

Current Time: Sep 26, 2016 at 10:55:26 AM

Latest Report: Sep 26, 2016 at 10:30 AM


Visibility: 1 mi

Pressure: 30.24 "Hg

Humidity: 100%

Dew Point: 54 °F

Location of AuxerreLocation

Past Weather in Auxerre — Graph

°F

Auxerre Temperature Yesterday

Maximum temperature yesterday: 75 °F (at 2:00 PM)
Minimum temperature yesterday: 50 °F (at 2:00 AM)
Average temperature yesterday: 61 °F

High & Low Weather Summary for the Past Weeks

 TemperatureHumidityPressure
High91 °F (Sep 12, 5:00 PM)100% (Sep 15, 7:00 AM)30.30 "Hg (Sep 15, 7:00 AM)
Low43 °F (Sep 22, 7:00 AM)30% (Sep 12, 5:00 PM)29.77 "Hg (Sep 13, 7:00 PM)
Average63 °F78%30.04 "Hg
* Reported Sep 11 9:00 AM — Sep 26 9:30 AM, Auxerre, Weather by CustomWeather, © 2016

Note: Actual official high and low records may vary slightly from our data, if they occured in-between our weather recording intervals... More about our weather records

Advertising

Auxerre Weather History for the Previous 24 Hours

Scroll right to see more
 ConditionsComfort  
Time TempWeatherWind HumidityBarometerVisibility
9:30 AM
Mon, Sep 26
52 °FFog.No wind100%30.24 "Hg0 mi
9:00 AM50 °FFog.2 mph100%30.24 "Hg0 mi
8:30 AM50 °FFog.1 mph100%30.24 "Hg0 mi
8:00 AM46 °FFog.1 mph100%30.24 "Hg0 mi
7:30 AM46 °FFog.3 mph100%30.24 "Hg0 mi
7:00 AM46 °FFog.No wind100%30.24 "Hg1 mi
6:30 AM48 °FFog.2 mph100%30.24 "Hg1 mi
6:00 AM48 °FFog.2 mph100%30.24 "Hg0 mi
5:30 AM48 °FFog.1 mph100%30.24 "Hg0 mi
5:00 AM48 °FFog.2 mph100%30.24 "Hg1 mi
4:30 AM48 °FFog.1 mph100%30.24 "Hg1 mi
4:00 AM48 °FFog.No wind100%30.24 "Hg0 mi
3:30 AM48 °FFog.No wind100%30.24 "Hg0 mi
3:00 AM48 °FFog.5 mph100%30.24 "Hg0 mi
2:30 AM48 °FFog.No wind100%30.24 "Hg1 mi
2:00 AM48 °FFog.2 mph100%30.24 "Hg1 mi
1:30 AM50 °FFog.No wind100%30.24 "Hg1 mi
1:00 AM50 °FFog.No wind100%30.24 "Hg1 mi
12:30 AM50 °FFog.No wind100%30.24 "Hg0 mi
12:00 AM52 °FFog.2 mph100%30.21 "Hg1 mi
11:30 PM
Sun, Sep 25
54 °FFog.1 mph94%30.21 "Hg0 mi
11:00 PM52 °FFog.No wind94%30.21 "Hg0 mi
10:30 PM55 °FFog.2 mph100%30.21 "Hg3 mi
10:00 PM54 °FFog.3 mph100%30.21 "Hg2 mi
9:30 PM57 °FFog.No wind100%30.18 "Hg3 mi
9:00 PM57 °FPassing clouds.No wind94%30.18 "Hg4 mi
8:30 PM59 °FClear.1 mph100%30.18 "Hg4 mi
8:00 PM59 °FClear.3 mph100%30.18 "Hg5 mi
7:30 PM63 °FSunny.5 mph88%30.15 "Hg10 mi
7:00 PM63 °FPartly sunny.8 mph88%30.15 "HgN/A
6:30 PM61 °FLight rain. Mostly cloudy.12 mph94%30.15 "Hg6 mi
6:00 PM63 °FPartly sunny.8 mph94%30.15 "HgN/A
5:30 PM63 °FPartly sunny.12 mph94%30.12 "HgN/A
5:00 PM63 °FMild.10 mph94%30.12 "HgN/A
4:30 PM63 °FLight rain. Broken clouds.14 mph94%30.12 "HgN/A
4:00 PM68 °FScattered clouds.16 mph69%30.09 "HgN/A
3:30 PM70 °FBroken clouds.15 mph64%30.09 "HgN/A
3:00 PM73 °FBroken clouds.12 mph57%30.07 "HgN/A
2:30 PM73 °FPartly sunny.12 mph57%30.07 "HgN/A
2:00 PM75 °FBroken clouds.14 mph54%30.07 "HgN/A
1:30 PM73 °FScattered clouds.12 mph53%30.07 "HgN/A
1:00 PM73 °FSunny.13 mph53%30.07 "Hg10 mi
12:30 PM72 °FSunny.16 mph53%30.07 "Hg10 mi
12:00 PM72 °FPassing clouds.13 mph57%30.07 "HgN/A
11:30 AM72 °FSunny.10 mph53%30.07 "Hg10 mi
11:00 AM70 °FPassing clouds.7 mph57%30.07 "HgN/A
10:30 AM68 °FSunny.12 mph60%30.07 "Hg10 mi
10:00 AM66 °FPassing clouds.7 mph64%30.07 "HgN/A
Weather by CustomWeather, © 2016

See weather overviewHow to use our weather pages